Lid_Strength_Index
8 7 6 6 5 5 4 3 3 4 5 8 8 9 9 9 7 8 9 9 9 9 9 8 9 8 9 9 8 8 7 7 6 16 15 15 16 15 15 14 13 12 12
9 8 7 7 6 6 5 5 4 6 6 7 9 10 10 9 8 10 10 11 10 11 11 10 10 10 11 10 10 11 11 11 11 16 17 17 17 17 16 16 15 15 14
9 9 9 9 8 8 7 7 7 8 8 10 11 11 12 11 12 11 12 13 13 13 12 12 11 11 12 11 12 13 13 12 13 14 17 17 17 17 17 17 17 17 16
10 10 10 10 9 9 9 8 9 9 10 12 12 12 13 12 12 13 13 14 14 14 13 14 13 13 12 12 13 12 12 13 14 15 16 16 17 16 16 17 17 16 17
10 10 10 10 10 10 10 10 11 11 13 13 14 14 14 13 13 14 14 14 15 15 15 15 14 14 13 12 11 11 12 13 14 14 15 16 16 16 16 16 17 17 18
11 11 10 10 11 10 11 12 12 13 14 14 15 15 15 15 13 13 14 15 15 16 16 16 15 15 14 13 13 13 12 12 13 14 14 15 16 16 15 16 17 17 18
13 13 12 12 12 12 13 13 14 14 14 15 15 15 15 14 13 13 14 15 15 15 16 16 17 16 15 15 14 14 15 14 13 14 15 16 17 17 16 16 17 17 17
14 14 14 14 14 14 14 15 15 15 15 15 15 15 15 14 14 13 14 15 16 15 16 16 16 16 15 16 16 16 16 16 16 17 17 17 17 17 17 16 17 18 18
16 15 15 15 15 14 14 15 14 15 15 15 15 15 15 16 13 14 14 15 15 16 16 15 15 16 14 14 16 17 17 17 15 15 15 15 15 15 16 16 17 16 18
17 16 15 14 14 15 15 15 14 14 15 14 15 14 14 14 13 13 14 15 16 16 15 15 15 15 15 15 16 17 18 18 17 17 17 16 15 15 15 16 16 16 16
17 16 16 16 15 15 15 15 15 15 15 15 15 15 14 14 14 14 14 15 15 15 16 16 15 14 14 15 16 17 17 16 16 16 16 16 16 16 16 16 16 16 16
17 17 16 16 15 15 15 14 14 15 15 16 16 16 15 15 14 13 13 14 14 15 16 15 15 14 15 15 15 14 14 14 15 15 16 16 16 17 17 17 18 18 18
19 18 17 16 16 15 15 15 15 15 16 16 17 17 16 15 14 13 12 12 13 13 13 13 13 14 14 15 15 15 16 16 16 17 17 18 18 18 18 17 18 20 21
18 17 16 15 14 14 14 14 14 14 14 15 15 15 15 15 14 13 12 12 12 12 13 14 14 15 15 17 17 18 18 19 19 19 19 18 18 18 18 20 19 20 21
17 17 15 14 14 14 14 14 14 14 14 15 15 15 16 16 16 15 14 15 14 12 14 14 16 17 18 18 19 20 20 20 20 20 21 21 20 21 20 21 22 22 22
17 17 17 15 14 14 15 15 14 14 14 14 15 15 16 16 16 15 15 16 16 15 15 17 18 19 20 21 21 21 22 22 22 21 22 22 22 22 23 22 22 23 24
19 19 18 17 16 15 15 16 18 17 16 16 16 17 17 17 17 17 17 18 17 17 19 20 21 21 22 22 22 23 23 24 25 23 23 24 24 23 24 24 23 23 24
21 24 19 18 17 17 16 16 16 17 18 20 19 18 18 18 18 18 19 19 22 22 22 23 23 23 23 24 24 24 24 24 24 25 25 26 26 26 25 25 25 27 26
20 20 19 19 18 18 17 17 18 19 20 21 21 21 23 20 20 20 20 23 24 24 24 25 25 25 25 25 25 26 27 26 27 27 26 27 27 27 27 26 26 28 28
22 24 23 19 19 18 18 19 19 20 21 21 22 23 23 23 24 25 24 24 25 25 25 26 26 27 27 27 27 27 26 26 26 27 27 26 26 26 27 27 27 26 26
20 20 26 20 20 20 19 20 20 21 21 22 22 22 22 24 25 26 26 26 26 26 27 26 27 27 27 27 27 26 27 26 26 27 26 26 26 27 26 25 25 25 25
21 21 21 21 21 21 21 21 21 21 22 23 23 23 24 25 25 26 26 27 27 28 28 28 27 27 27 27 27 27 27 27 27 27 26 27 27 26 25 25 25 24 23
21 22 22 22 22 26 23 22 22 22 23 24 24 25 25 25 26 26 27 27 28 28 28 28 28 29 28 28 28 27 27 27 27 27 28 28 27 26 26 25 25 26 25
21 21 22 22 23 23 23 24 25 26 24 25 25 25 25 26 27 27 28 27 28 28 28 29 29 29 29 29 27 26 26 26 27 26 27 27 26 25 25 25 24 24 23
22 22 22 23 24 24 25 25 24 25 25 25 25 25 26 27 28 27 27 28 29 29 29 29 28 28 28 28 28 27 25 23 24 24 26 27 26 27 25 24 24 23 23
23 23 23 24 24 24 25 25 25 25 26 25 26 26 27 27 27 27 27 28 29 29 28 27 26 26 26 26 25 24 24 21 23 24 25 24 24 24 23 23 24 23 23